DAPP 3526

operational
NORAD ID: 4953 Int'l Des: 1971-012 Owner: SAMSO Country: US
LEOCIRCULARRETROGRADESSO

DAPP 3526について

説明を読み込み中...

リアルタイム位置

3D地球を読み込み中...

次回通過

高度履歴

Altitude vs Time

uPlot chart will show altitude changes over time

軌道要素

1 4953U 71012A 26061.14590458 .00000317 00000-0 10906-3 0 9993
2 4953 98.4991 291.3460 0037945 30.3507 329.9868 14.42109863883354
Epoch: Mar 2, 2026 • Age: 31 hours

現在のステータス

高度 791.9 km
速度 7.44 km/s
衛星直下点 -36.00°S, 161.94°W
タイプ other

大規模コンステレーション

Loading constellations...